STARLINK-1665, 46356

Orbit data source: Space-Track

STARLINK-1665, 46356 is a payload satellite owned by SpaceX/Seattle (US) in LEO that was launched on Thu, 03 Sep 2020 UTC via an FALCON 9 launch vehicle from the Air Force Eastern Test Range (AFETR). Payload-class satellites include a variety of spacecraft equipped with specific instruments for various scientific and technological missions. These include communications satellites like Starlink; space stations such as the ISS; scientific satellites like the Hubble; Earth observation satellites from companies like Planet Labs, Umbra, and HawkEye 360; GPS; miniature CubeSats for education and research; and military/defense satellites.

Loading next visibility...
Identifier
46356, 2020-062AH
Orbit
LEO
Country
Flag of USUS
Related business
Manufacturer
SpaceX/Seattle
Mission
Operational Commercial Communications
Bus & Motor
STARLINK, Unknown motor
Mass
260 kg wet, ~248 kg dry
Launch date (UTC)
2020-09-03 (5 years ago)
Launch vehicle
FALCON 9
Launch site
Air Force Eastern Test Range (AFETR)
Object type
Payload
Rocket body
Debris
Shape & HBR
Box + 1 Pan, 4.4 m
Radar Cross Section
13.562 m², Large (>1 m²)

Expand to show TLE details & history
Last TLE update: 12 hours ago

TLE from 12 hours ago
0 STARLINK-1665
1 46356U 20062AH  25261.74944191 -.00000244  00000-0  24968-5 0  9994
2 46356  53.0556  68.5295 0001372  98.6145 261.4999 15.06400898278391
Epoch: 2025-09-18T17:59Z
TLE epoch observation values (Epoch: 2025-09-18T17:59:11.781Z)
Latitude
-0.00004°
Longitude
160.82381°
Altitude
548.229 km
Speed
7.589 km/s
True Right ascension
04h 34m 07s
True Declination
0° 00' 00"
Sunlit
Object was in daylight at epoch
Visualization orbit readout
Latitude
Unknown
Longitude
Unknown
Altitude
Unknown
Speed
Unknown
Apparent Right ascension
Unknown
Apparent Declination
Unknown
Sunlit
N/A
Visualization observer readout
Local Sidereal Time
23:06:17
Azimuth
Unknown
Elevation
Unknown
Doppler factor
Unknown
Orbital elements
Apogee altitude
548.43 km
Perigee altitude
546.529 km
Semi-major axis
6,925.616 km
Eccentricity
0.00014
Inclination
53.0556°
RAAN
68.5295°
Arg. of periapsis
98.6145°
True anomaly
261.48435°
Mean anomaly
261.4999°
Eccentric anomaly
261.49213°
Mean motion
3.76579 °/min
Orbital period
95.6 mins
BSTAR
0.0000024968
Loading maneuver chart data...
Computing Atmospheric mass density...
Loading historical data...
Loading historical data...
Loading historical data...
Loading historical data...
Loading historical data...
Loading historical data...
Loading historical data...

Documentation

Showing up to 5 results
|